Location: Sternwarte Stuttgart
(48.7824°N, 9.1965°E)
Time: 11:36:07
(UTC+00:00)

Daily predictions for brighter satellites

Satellite Brightness Start Highest point End
(mag) Time Altitude Azimuth Time Altitude Azimuth Time Altitude Azimuth
Meteor 1-27 Rocket 4.4 15:55:46 10° SSW 16:01:37 62° WNW 16:07:32 10° N
CZ-4 R/B 3.0 15:59:13 10° E 16:01:54 17° ENE 16:04:35 10° NNE
Timation 1 Rocket 4.4 15:57:11 10° NNW 16:03:06 58° NE 16:08:58 10° SE
Okean 1 Rocket 3.9 16:01:19 10° N 16:05:13 30° ENE 16:09:04 10° SE
BREEZE-M DEB (TANK) 4.4 16:03:40 10° WNW 16:08:15 84° SSW 16:30:12 10° ESE
Cosmos 1727 Rocket 4.0 16:07:57 10° N 16:14:10 62° ENE 16:20:17 10° SSE
SL-16 R/B 2.2 16:10:01 10° SSW 16:15:41 87° ESE 16:21:25 10° NNE
Meteor 1-18 Rocket 4.3 16:12:54 10° S 16:18:18 56° E 16:23:44 10° NNE
Cosmos 1812 3.9 16:15:54 10° SSW 16:19:35 45° WNW 16:23:19 10° N
Cosmos 1300 Rocket 3.5 16:16:42 10° N 16:21:10 80° E 16:25:33 10° SSE
Cosmos 1339 Rocket 4.4 16:15:17 10° N 16:21:26 85° E 16:27:30 10° S
FENGYUN 3A 3.7 16:16:33 10° SSE 16:21:50 58° ENE 16:27:06 10° N
ERBS 2.4 16:21:17 10° WSW 16:24:37 70° NNW 16:27:32 13° NE
CORIOLIS 4.3 16:19:42 10° SE 16:24:58 54° ENE 16:30:15 10° N
Cosmos 968 Rocket 3.8 16:22:58 10° S 16:28:02 50° ESE 16:33:07 10° NNE
Cosmos 1486 Rocket 4.4 16:23:08 10° SSW 16:28:26 69° WNW 16:33:47 10° NNE
EO 1 Delta rocket 4.0 16:23:43 10° N 16:28:27 88° E 16:33:54 10° S
SJ-7 4.5 16:24:38 10° SSE 16:28:48 90° E 16:33:04 10° NNW
METEOR-M 4.1 16:24:05 10° SSE 16:29:26 86° ENE 16:34:49 10° NNW
Ariane Rocket 3.9 16:25:39 10° ESE 16:29:44 26° ENE 16:33:51 10° N
SAR-Lupe-2 3.7 16:27:00 10° NNE 16:30:32 52° E 16:34:03 10° S
Cosmos 1844 Rocket 2.7 16:28:32 10° NNW 16:34:11 59° ENE 16:39:45 10° SE
USA 215 3.8 16:32:35 12° ENE 16:38:10 44° N 16:44:17 10° WNW
Cosmos 967 Rocket 4.5 16:32:26 10° NNW 16:38:42 62° NE 16:44:55 10° SE
Meteor 1-12 Rocket 4.2 16:35:05 10° N 16:40:45 66° ENE 16:46:21 10° SSE
Cosmos 1674 Rocket 3.5 16:36:50 10° S 16:41:15 75° E 16:45:43 10° NNE
Cosmos 2219 Rocket 3.4 16:39:04 10° SSE 16:43:18 22° E 16:45:49 16° ENE
Cosmos 2263 Rocket 4.2 16:38:57 10° NW 16:43:55 32° WSW 16:48:52 10° SSW
Cosmos 773 Rocket 4.2 16:39:01 10° NNW 16:44:10 48° ENE 16:49:17 10° SE
Cosmos 1975 2.9 16:40:34 10° N 16:44:39 85° W 16:48:41 10° S
Meteor 1-19 Rocket 4.3 16:42:14 10° S 16:47:37 56° E 16:53:06 10° NNE
Cosmos 1666 3.6 16:44:22 10° NNW 16:48:10 53° W 16:51:56 10° S
Okean 3 3.7 16:46:50 10° SSW 16:51:08 73° W 16:55:26 10° N
SeaSat 1 2.9 16:47:50 10° SSE 16:52:44 67° WSW 16:57:41 10° NW
Meteor 2-17 Rocket 4.4 16:48:41 10° S 16:54:46 67° E 17:00:53 10° NNE
SMAP 3.3 16:50:49 10° S 16:55:27 75° WSW 17:00:09 10° NNW
NOSS 2 (A) 3.7 16:54:17 10° NW 16:56:41 78° NE 16:58:01 22° SE
NOAA 12 4.1 16:55:28 10° SE 17:00:36 56° ENE 17:05:45 10° N
Cosmos 2322 Rocket 3.0 16:57:21 10° SW 17:02:53 50° NW 17:08:25 10° NNE
NOSS 2-1 (C) 4.4 16:59:19 10° NW 17:04:45 73° NE 17:12:18 10° SE
Lacrosse 5 2.3 17:00:10 10° NW 17:05:00 43° NNE 17:07:27 25° ENE
COSMOS 2428 3.2 17:00:18 10° S 17:05:32 38° ESE 17:08:32 22° NE
Meteor 1-13 Rocket 4.3 17:01:09 10° S 17:06:29 54° E 17:11:54 10° NNE
NOSS 2-1 (D) 4.4 17:01:16 10° NW 17:06:44 75° NE 17:14:18 10° SE
Okean 1 4.3 17:02:52 10° SSW 17:06:48 48° WNW 17:10:46 10° N
Cosmos 1743 4.1 17:07:30 10° NNW 17:11:08 41° W 17:14:43 10° SSW
CSL-04 Rocket 3.6 17:06:18 10° SSE 17:11:39 82° ENE 17:17:07 10° NNW
Cosmos 2278 Rocket 2.6 17:08:05 10° NNW 17:13:27 40° NE 17:16:58 20° ESE
Cosmos 1455 Rocket 3.4 17:09:29 10° N 17:13:34 38° ENE 17:17:36 10° SE
Meteor 2-4 Rocket 3.6 17:08:19 10° S 17:13:51 63° E 17:19:15 10° NNE
Cosmos 2360 Rocket 2.3 17:09:09 10° SSW 17:14:47 78° WNW 17:19:34 15° NNE
Cosmos 1538 Rocket 4.0 17:10:23 10° NNW 17:15:49 78° ENE 17:21:11 10° SSE
Cosmos 923 Rocket 4.4 17:12:14 10° NNW 17:17:11 40° ENE 17:20:33 19° ESE
Cosmos 1821 Rocket 4.0 17:12:55 10° S 17:19:17 75° E 17:25:40 10° NNE
COSMO-SKYMED 1 2.7 17:17:02 25° NE 17:19:17 50° E 17:23:30 10° S
Cosmos 909 Rocket 4.4 17:13:31 10° S 17:19:31 49° ESE 17:23:21 25° NE
Cosmos 1980 Rocket 4.3 17:15:55 10° WNW 17:19:37 18° NW 17:23:20 10° N
BREEZE-M DEB (TANK) 3.4 17:16:16 10° W 17:19:51 86° N 17:27:06 21° E
Lacrosse 5 rocket 1.6 17:17:16 10° SW 17:21:57 85° NW 17:23:56 35° NE
Cosmos 2333 4.2 17:17:20 10° SSW 17:22:53 62° ESE 17:26:02 26° NE
Cosmos 1975 Rocket 2.9 17:22:45 10° S 17:27:05 66° E 17:29:28 26° NNE
H-2A R/B 2.7 17:23:38 10° SSE 17:27:32 85° ENE 17:31:30 10° NNW
YAOGAN 1 2.4 17:23:41 10° SSE 17:28:00 80° ENE 17:32:21 10° NNW
Geosat 4.1 17:24:43 19° NNE 17:28:25 77° WNW 17:33:26 10° SW
DNEPR-1 R/B 4.4 17:23:12 10° SSW 17:28:30 59° ESE 17:31:35 30° NE
Cosmos 1535 Rocket 4.4 17:23:03 10° S 17:29:11 68° E 17:35:26 10° NNE
ALOS 4.0 17:25:55 10° SSW 17:30:10 35° W 17:34:27 10° NNW
CSL-04 Debris 4.3 17:25:05 10° S 17:30:29 75° WSW 17:35:54 10° NNW
Cosmos 2333 Rocket 2.5 17:25:37 10° S 17:30:59 45° ESE 17:32:38 36° ENE
Envisat 3.2 17:26:11 10° SE 17:30:59 45° ENE 17:35:50 10° N
Cosmos 1680 Rocket 3.8 17:27:28 10° NNW 17:32:33 42° ENE 17:33:36 38° E
FengYun 1-2 T 4.1 17:30:48 10° SSE 17:36:17 66° ENE 17:41:51 10° N
CZ-4 R/B 1.9 17:32:19 10° S 17:36:29 62° WSW 17:40:40 10° NNW
Meteor 1-15 Rocket 4.2 17:34:20 10° N 17:40:13 71° ENE 17:46:07 10° SSE
Meteor 1-23 Rocket 4.3 17:34:57 10° S 17:40:36 57° E 17:43:41 27° NNE
Shenzhou-11 Module 3.8 17:38:16 10° SW 17:40:19 23° S 17:40:19 23° S
Cosmos 1844 4.2 17:35:45 10° NW 17:41:21 60° WSW 17:46:59 10° S
Cosmos 2237 Rocket 3.3 17:36:56 10° SSE 17:40:16 25° SE 17:40:16 25° SE
CZ-4C R/B 3.0 17:37:03 10° NW 17:43:42 50° NE 17:46:21 36° E
Cosmos 2123 Rocket 4.0 17:41:07 10° N 17:47:30 88° W 17:53:50 10° S
Cosmos 2322 4.2 17:50:51 10° SW 17:56:26 57° WNW 17:59:45 25° NNE
SL-16 R/B 4.2 17:56:11 10° W 18:00:34 22° NW 18:04:34 11° N
Cosmos 1515 4.4 17:56:55 10° SSW 18:00:40 51° WNW 18:01:37 40° NNW
ERBS 4.4 17:58:48 10° WNW 18:00:39 20° NW 18:00:39 20° NW
ATLAS 3B R/B 3.6 18:00:00 10° S 18:04:40 30° SE 18:04:40 30° SE
SKYMED 2 4.2 18:05:40 32° N 18:07:24 55° WNW 18:11:38 10° SSW
Ariane Rocket 3.7 18:03:29 10° S 18:08:25 52° W 18:13:22 10° NNW
Cosmos 1777 Rocket 4.1 18:03:58 10° SSW 18:09:10 72° WNW 18:10:40 46° N
Gbstr 26 Del rocket 4.0 18:02:28 10° WSW 18:10:01 76° SSE 18:11:20 59° E
Cosmos 1544 Rocket 3.9 18:06:11 10° NNW 18:10:32 64° W 18:14:53 10° S
Cosmos 1934 Rocket 4.2 18:04:48 10° SSW 18:10:58 68° WNW 18:17:05 10° N
Cosmos 1943 Rocket 4.4 18:16:29 10° N 18:16:55 11° N 18:16:55 11° N
Cosmos 1980 4.2 18:14:50 10° S 18:18:55 45° SSE 18:18:55 45° SSE
USA 215 3.4 18:19:56 52° NE 18:20:34 54° NNE 18:26:54 10° WNW
USA 238 DEB 3.6 18:16:36 10° SSW 18:23:14 62° SE 18:23:14 62° SE
USA 238 3.6 18:16:42 10° SSW 18:23:20 62° SE 18:23:20 62° SE
Cosmos 1447 Rocket 4.4 18:20:28 10° N 18:26:40 85° W 18:32:48 10° S
Cosmos 2219 Rocket 2.4 18:21:04 10° SW 18:26:43 68° WNW 18:27:35 59° N
MOS 1 4.4 18:21:18 10° S 18:26:59 72° WSW 18:32:43 10° NNW
NOSS 3-2 (A) 4.4 18:22:01 10° S 18:25:19 32° SSE 18:25:19 32° SSE
Cosmos 1605 Rocket 4.2 18:26:24 10° SSW 18:32:34 70° WNW 18:36:57 21° N
Meteor 2-12 Rocket 4.3 18:27:57 10° S 18:34:02 86° WNW 18:34:23 80° NNW
NOSS 0 Rocket 4.0 18:34:18 10° SSW 18:39:42 70° SSW 18:39:42 70° SSW
Cosmos 2369 Rocket 4.5 18:42:57 10° N 18:43:43 13° N 18:43:43 13° N
Lacrosse 5 2.9 18:43:12 10° WNW 18:46:41 43° WNW 18:46:41 43° WNW
COSMOS 2428 3.7 18:44:20 10° WSW 18:49:45 42° NW 18:50:34 40° NNW
NOSS 3-3 (A) 4.5 18:46:21 10° NW 18:53:47 78° SW 18:54:48 68° S
NOSS 3-3 (C) 4.5 18:46:27 10° NW 18:53:53 79° SW 18:54:51 69° S
Cosmos 2278 Rocket 3.3 18:52:16 10° NW 18:57:33 40° WSW 18:58:56 35° SW
Cosmos 2360 Rocket 4.3 18:55:47 10° W 18:59:44 19° NW 19:01:21 17° NNW
Lacrosse 5 rocket 3.8 18:57:26 10° W 18:59:37 23° WNW 18:59:37 23° WNW
Cosmos 2333 Rocket 3.6 19:10:10 10° WSW 19:14:41 35° WNW 19:14:41 35° WNW
Cosmos 2237 Rocket 4.0 19:19:53 10° SW 19:22:09 24° SW 19:22:09 24° SW
CZ-4C R/B 3.5 19:25:35 10° NW 19:31:35 53° W 19:31:35 53° W
ATLAS 3B R/B 4.4 19:49:26 10° SW 19:51:58 24° WSW 19:51:58 24° WSW
